This is the latest recevied weather packets stored in our database for station/object KG2V. If no packets are shown the sender has not sent any weather packets the latest 10 day(s).
| Time | Temp. | Humidity | Pressure | Rain* | Wind** | Luminosity | Snow |
|---|---|---|---|---|---|---|---|
| 1778261277 | 11.67° C | 55% | 1007.6 hPa | 0 mm | - | 737 W/m² | - |
| 1778260974 | 11.11° C | 59% | 1007.9 hPa | 0 mm | - | 742 W/m² | - |
| 1778260670 | 11.67° C | 59% | 1007.9 hPa | 0 mm | - | 738 W/m² | - |
| 1778260366 | 11.67° C | 59% | 1008.1 hPa | 0 mm | - | 781 W/m² | - |
| 1778260063 | 10.56° C | 66% | 1007.9 hPa | 0 mm | - | 755 W/m² | - |
| 1778259762 | 10.56° C | 66% | 1008.1 hPa | 0 mm | - | 185 W/m² | - |
| 1778259458 | 11.11° C | 57% | 1008 hPa | 0 mm | - | 612 W/m² | - |
| 1778259155 | 10.56° C | 67% | 1008.1 hPa | 0 mm | - | 154 W/m² | - |
| 1778258851 | 10° C | 66% | 1008.1 hPa | 0 mm | - | 770 W/m² | - |
| 1778258548 | 9.44° C | 67% | 1007.7 hPa | 0 mm | - | 827 W/m² | - |
| 1778258246 | 10° C | 67% | 1008.1 hPa | 0 mm | - | 165 W/m² | - |
| 1778257943 | 10° C | 70% | 1008.3 hPa | 0 mm | - | 735 W/m² | - |
| 1778257639 | 9.44° C | 67% | 1008.6 hPa | 0 mm | - | 141 W/m² | - |
| 1778257336 | 10° C | 67% | 1008.4 hPa | 0 mm | - | 195 W/m² | - |
| 1778257033 | 9.44° C | 66% | 1008.6 hPa | 0 mm | - | 219 W/m² | - |
| 1778256731 | 9.44° C | 68% | 1008.8 hPa | 0 mm | - | 177 W/m² | - |
| 1778256429 | 9.44° C | 67% | 1008.5 hPa | 0 mm | - | 200 W/m² | - |
| 1778256126 | 10° C | 68% | 1008.6 hPa | 0 mm | - | 244 W/m² | - |
| 1778255823 | 8.89° C | 70% | 1008.7 hPa | 0 mm | - | 750 W/m² | - |
| 1778255520 | 10° C | 69% | 1008.7 hPa | 0 mm | - | 453 W/m² | - |
| 1778255217 | 8.89° C | 73% | 1008.5 hPa | 0 mm | - | 719 W/m² | - |
| 1778254914 | 9.44° C | 71% | 1008.7 hPa | 0 mm | - | 162 W/m² | - |
| 1778254610 | 8.89° C | 73% | 1008.8 hPa | 0 mm | - | 645 W/m² | - |
| 1778254308 | 9.44° C | 75% | 1008.5 hPa | 0 mm | - | 375 W/m² | - |
| 1778254004 | 8.89° C | 74% | 1008.4 hPa | 0 mm | - | 300 W/m² | - |
* Rain latest hour (hover to see other rain measurements)
** Current wind speed in m/s (hover to see current wind gust speed)